| time (UTC) | temp F | wind direction | speed knots | gust knots | rain 1hr in | rain 24hr in | rain mn in | humidity % | barometer mb |
| 20260507032507 | 53 | 360 | 0.9 | 1.7 | 0.00 | 0.00 | 0.00 | 64 | 1018.2 |
| 20260507032010 | 54 | 360 | 0.0 | 1.7 | 0.00 | 0.00 | 0.00 | 63 | 1018.3 |
| 20260507031518 | 54 | 360 | 0.0 | 2.6 | 0.00 | 0.00 | 0.00 | 62 | 1018.3 |
| 20260507031009 | 54 | 11 | 0.9 | 3.5 | 0.00 | 0.00 | 0.00 | 61 | 1018.0 |
| 20260507030503 | 55 | 16 | 1.7 | 3.5 | 0.00 | 0.00 | 0.00 | 61 | 1017.7 |
| 20260507030006 | 55 | 360 | 0.9 | 2.6 | 0.00 | 0.00 | 0.00 | 61 | 1017.8 |
| 20260507025505 | 55 | 360 | 0.9 | 4.3 | 0.00 | 0.00 | 0.00 | 60 | 1017.9 |
| 20260507025002 | 55 | 9 | 0.9 | 4.3 | 0.00 | 0.00 | 0.00 | 59 | 1017.8 |
| 20260507024508 | 56 | 36 | 1.7 | 3.5 | 0.00 | 0.00 | 0.00 | 58 | 1017.5 |
| 20260507024008 | 56 | 360 | 1.7 | 3.5 | 0.00 | 0.00 | 0.00 | 58 | 1017.4 |
| 20260507023503 | 56 | 360 | 1.7 | 3.5 | 0.00 | 0.00 | 0.00 | 57 | 1017.3 |
| 20260507023009 | 56 | 360 | 1.7 | 3.5 | 0.00 | 0.00 | 0.00 | 57 | 1017.4 |
| 20260507022505 | 57 | 46 | 1.7 | 4.3 | 0.00 | 0.00 | 0.00 | 57 | 1017.3 |
| 20260507022004 | 57 | 33 | 1.7 | 7.8 | 0.00 | 0.00 | 0.00 | 56 | 1017.3 |
| 20260507021512 | 57 | 360 | 2.6 | 7.8 | 0.00 | 0.00 | 0.00 | 56 | 1017.2 |
| 20260507021008 | 57 | 30 | 4.3 | 9.6 | 0.00 | 0.00 | 0.00 | 55 | 1017.1 |
| 20260507020507 | 58 | 40 | 4.3 | 9.6 | 0.00 | 0.00 | 0.00 | 55 | 1017.0 |
| 20260507020022 | 58 | 21 | 4.3 | 8.7 | 0.00 | 0.00 | 0.00 | 55 | 1017.0 |
| 20260507015507 | 58 | 37 | 5.2 | 8.7 | 0.00 | 0.00 | 0.00 | 55 | 1016.9 |
| 20260507015005 | 58 | 11 | 3.5 | 7.8 | 0.00 | 0.00 | 0.00 | 55 | 1016.9 |
| 20260507014503 | 58 | 352 | 2.6 | 5.2 | 0.00 | 0.00 | 0.00 | 55 | 1016.8 |
| 20260507014004 | 58 | 360 | 2.6 | 7.8 | 0.00 | 0.00 | 0.00 | 55 | 1016.7 |
| 20260507013503 | 58 | 32 | 3.5 | 7.8 | 0.00 | 0.00 | 0.00 | 54 | 1016.7 |
| 20260507013005 | 59 | 12 | 4.3 | 9.6 | 0.00 | 0.00 | 0.00 | 54 | 1016.6 |
| 20260507012507 | 59 | 17 | 3.5 | 9.6 | 0.00 | 0.00 | 0.00 | 53 | 1016.5 |
| 20260507012005 | 59 | 360 | 3.5 | 8.7 | 0.00 | 0.00 | 0.00 | 53 | 1016.4 |
| 20260507011511 | 59 | 20 | 5.2 | 9.6 | 0.00 | 0.00 | 0.00 | 52 | 1016.2 |
| 20260507011008 | 60 | 360 | 5.2 | 9.6 | 0.00 | 0.00 | 0.00 | 52 | 1016.1 |
| 20260507010503 | 60 | 43 | 4.3 | 8.7 | 0.00 | 0.00 | 0.00 | 52 | 1016.2 |
| 20260507010014 | 60 | 26 | 6.1 | 9.6 | 0.00 | 0.00 | 0.00 | 51 | 1016.1 |
| 20260507005507 | 61 | 22 | 6.1 | 10.4 | 0.00 | 0.00 | 0.00 | 51 | 1016.2 |
| 20260507005007 | 61 | 30 | 3.5 | 10.4 | 0.00 | 0.00 | 0.00 | 51 | 1016.2 |
| 20260507004520 | 61 | 13 | 4.3 | 11.3 | 0.00 | 0.00 | 0.00 | 51 | 1016.2 |
| 20260507004010 | 61 | 23 | 6.1 | 11.3 | 0.00 | 0.00 | 0.00 | 50 | 1016.2 |
| 20260507003507 | 61 | 351 | 4.3 | 9.6 | 0.00 | 0.00 | 0.00 | 51 | 1016.2 |
| 20260507003005 | 61 | 30 | 4.3 | 10.4 | 0.00 | 0.00 | 0.00 | 50 | 1016.1 |
| 20260507002502 | 62 | 9 | 3.5 | 10.4 | 0.00 | 0.00 | 0.00 | 50 | 1016.2 |
| 20260507002003 | 62 | 32 | 6.1 | 9.6 | 0.00 | 0.00 | 0.00 | 50 | 1016.1 |
| 20260507001527 | 62 | 352 | 4.3 | 11.3 | 0.00 | 0.00 | 0.00 | 50 | 1016.1 |
| 20260507001004 | 62 | 26 | 6.1 | 13.0 | 0.00 | 0.00 | 0.00 | 49 | 1016.0 |
| 20260507000505 | 62 | 34 | 7.8 | 13.0 | 0.00 | 0.00 | 0.00 | 49 | 1016.0 |
| 20260507000014 | 62 | 22 | 5.2 | 11.3 | 0.00 | 0.00 | 0.00 | 50 | 1015.9 |
| 20260506235504 | 62 | 13 | 5.2 | 11.3 | 0.00 | 0.00 | 0.00 | 49 | 1015.9 |
| 20260506235003 | 63 | 19 | 7.0 | 10.4 | 0.00 | 0.00 | 0.00 | 49 | 1015.8 |
| 20260506234514 | 63 | 49 | 5.2 | 10.4 | 0.00 | 0.00 | 0.00 | 49 | 1015.9 |
| 20260506234006 | 63 | 5 | 4.3 | 11.3 | 0.00 | 0.00 | 0.00 | 49 | 1015.7 |
| 20260506233506 | 63 | 20 | 7.0 | 11.3 | 0.00 | 0.00 | 0.00 | 48 | 1015.8 |
| 20260506233022 | 63 | 34 | 6.1 | 9.6 | 0.00 | 0.00 | 0.00 | 49 | 1015.7 |
| 20260506232509 | 63 | 34 | 7.0 | 9.6 | 0.00 | 0.00 | 0.00 | 48 | 1015.6 |
| 20260506232009 | 63 | 352 | 5.2 | 9.6 | 0.00 | 0.00 | 0.00 | 48 | 1015.5 |
| 20260506231504 | 63 | 9 | 5.2 | 13.0 | 0.00 | 0.00 | 0.00 | 49 | 1015.5 |
| 20260506231004 | 63 | 17 | 5.2 | 13.0 | 0.00 | 0.00 | 0.00 | 48 | 1015.5 |
| 20260506230507 | 63 | 352 | 7.0 | 13.0 | 0.00 | 0.00 | 0.00 | 48 | 1015.5 |
| 20260506230007 | 63 | 360 | 5.2 | 11.3 | 0.00 | 0.00 | 0.00 | 49 | 1015.5 |
| 20260506225503 | 63 | 43 | 4.3 | 9.6 | 0.00 | 0.00 | 0.00 | 49 | 1015.4 |
| 20260506225007 | 63 | 48 | 6.1 | 13.9 | 0.00 | 0.00 | 0.00 | 48 | 1015.5 |
| 20260506224515 | 63 | 49 | 3.5 | 13.9 | 0.00 | 0.00 | 0.00 | 49 | 1015.4 |
| 20260506224007 | 63 | 5 | 6.1 | 13.9 | 0.00 | 0.00 | 0.00 | 49 | 1015.3 |
| 20260506223507 | 63 | 41 | 7.8 | 13.9 | 0.00 | 0.00 | 0.00 | 49 | 1015.3 |
| 20260506223027 | 63 | 23 | 5.2 | 13.0 | 0.00 | 0.00 | 0.00 | 50 | 1015.1 |
| 20260506222510 | 63 | 29 | 6.1 | 13.0 | 0.00 | 0.00 | 0.00 | 50 | 1015.0 |
| 20260506222009 | 63 | 61 | 7.8 | 13.0 | 0.00 | 0.00 | 0.00 | 51 | 1015.0 |
| 20260506221522 | 63 | 5 | 4.3 | 13.0 | 0.00 | 0.00 | 0.00 | 51 | 1015.0 |
| 20260506221007 | 63 | 41 | 8.7 | 13.0 | 0.00 | 0.00 | 0.00 | 50 | 1015.0 |
| 20260506220507 | 62 | 51 | 9.6 | 13.9 | 0.00 | 0.00 | 0.00 | 50 | 1015.1 |
| 20260506220005 | 63 | 56 | 9.6 | 13.9 | 0.00 | 0.00 | 0.00 | 51 | 1015.0 |
| 20260506215504 | 63 | 61 | 5.2 | 13.0 | 0.00 | 0.00 | 0.00 | 51 | 1015.1 |
| 20260506215006 | 63 | 22 | 8.7 | 13.0 | 0.00 | 0.00 | 0.00 | 53 | 1015.2 |
| 20260506214510 | 62 | 28 | 5.2 | 13.0 | 0.00 | 0.00 | 0.00 | 52 | 1015.1 |
| 20260506214004 | 63 | 38 | 7.8 | 18.2 | 0.00 | 0.00 | 0.00 | 52 | 1015.2 |
| 20260506213510 | 62 | 19 | 10.4 | 18.2 | 0.00 | 0.00 | 0.00 | 53 | 1015.2 |
| 20260506213017 | 62 | 46 | 7.8 | 13.9 | 0.00 | 0.00 | 0.00 | 52 | 1015.2 |
| 20260506212507 | 62 | 360 | 8.7 | 13.0 | 0.00 | 0.00 | 0.00 | 52 | 1015.3 |
| 20260506212014 | 62 | 346 | 7.8 | 13.9 | 0.00 | 0.00 | 0.00 | 52 | 1015.3 |
| 20260506211522 | 62 | 37 | 10.4 | 13.9 | 0.00 | 0.00 | 0.00 | 53 | 1015.4 |
| 20260506211010 | 62 | 5 | 4.3 | 11.3 | 0.00 | 0.00 | 0.00 | 53 | 1015.5 |
| 20260506210515 | 62 | 22 | 6.1 | 14.8 | 0.00 | 0.00 | 0.00 | 54 | 1015.5 |
| 20260506210045 | 62 | 31 | 7.8 | 14.8 | 0.00 | 0.00 | 0.00 | 53 | 1015.5 |
| 20260506205512 | 62 | 341 | 6.1 | 13.0 | 0.00 | 0.00 | 0.00 | 53 | 1015.5 |
| 20260506205012 | 61 | 32 | 7.8 | 13.0 | 0.00 | 0.00 | 0.00 | 55 | 1015.6 |
| 20260506204531 | 61 | 5 | 7.8 | 13.0 | 0.00 | 0.00 | 0.00 | 54 | 1015.7 |
| 20260506204004 | 61 | 352 | 9.6 | 13.0 | 0.00 | 0.00 | 0.00 | 54 | 1015.7 |
| 20260506203506 | 62 | 13 | 6.1 | 15.6 | 0.00 | 0.00 | 0.00 | 53 | 1015.8 |
| 20260506203013 | 62 | 39 | 10.4 | 15.6 | 0.00 | 0.00 | 0.00 | 54 | 1015.9 |
| 20260506202506 | 61 | 28 | 7.8 | 13.0 | 0.00 | 0.00 | 0.00 | 53 | 1015.7 |
| 20260506202010 | 61 | 40 | 7.0 | 14.8 | 0.00 | 0.00 | 0.00 | 56 | 1015.9 |
| 20260506201530 | 62 | 55 | 9.6 | 14.8 | 0.00 | 0.00 | 0.00 | 53 | 1015.9 |
| 20260506201008 | 62 | 41 | 4.3 | 13.9 | 0.00 | 0.00 | 0.00 | 55 | 1015.9 |
| 20260506200507 | 61 | 34 | 7.8 | 14.8 | 0.00 | 0.00 | 0.00 | 53 | 1016.0 |
| 20260506200024 | 61 | 19 | 7.8 | 16.5 | 0.00 | 0.00 | 0.00 | 54 | 1016.0 |
| 20260506195507 | 62 | 5 | 10.4 | 16.5 | 0.00 | 0.00 | 0.00 | 53 | 1016.0 |
| 20260506195008 | 62 | 32 | 9.6 | 15.6 | 0.00 | 0.00 | 0.00 | 55 | 1016.0 |
| 20260506194528 | 61 | 341 | 7.0 | 13.0 | 0.00 | 0.00 | 0.00 | 57 | 1016.0 |
| 20260506194010 | 61 | 57 | 8.7 | 14.8 | 0.00 | 0.00 | 0.00 | 55 | 1016.0 |
| 20260506193511 | 61 | 331 | 8.7 | 14.8 | 0.00 | 0.00 | 0.00 | 54 | 1016.1 |
| 20260506193034 | 61 | 350 | 9.6 | 14.8 | 0.00 | 0.00 | 0.00 | 54 | 1016.1 |
| 20260506192507 | 61 | 360 | 6.1 | 13.9 | 0.00 | 0.00 | 0.00 | 54 | 1016.0 |
| 20260506192006 | 61 | 11 | 9.6 | 16.5 | 0.00 | 0.00 | 0.00 | 55 | 1016.2 |
| 20260506191516 | 61 | 338 | 9.6 | 16.5 | 0.00 | 0.00 | 0.00 | 53 | 1016.2 |
| 20260506191006 | 61 | 345 | 8.7 | 14.8 | 0.00 | 0.00 | 0.00 | 55 | 1016.3 |
| 20260506190502 | 61 | 33 | 8.7 | 14.8 | 0.00 | 0.00 | 0.00 | 53 | 1016.2 |
| 20260506190002 | 61 | 66 | 7.0 | 14.8 | 0.00 | 0.00 | 0.00 | 53 | 1016.2 |
| 20260506185505 | 61 | 5 | 9.6 | 15.6 | 0.00 | 0.00 | 0.00 | 53 | 1016.2 |
| 20260506185002 | 60 | 360 | 7.8 | 16.5 | 0.00 | 0.00 | 0.00 | 53 | 1016.3 |
| 20260506184504 | 61 | 352 | 5.2 | 16.5 | 0.00 | 0.00 | 0.00 | 53 | 1016.3 |
| 20260506184002 | 61 | 45 | 9.6 | 14.8 | 0.00 | 0.00 | 0.00 | 52 | 1016.3 |
| 20260506183503 | 61 | 83 | 7.0 | 14.8 | 0.00 | 0.00 | 0.00 | 53 | 1016.4 |
| 20260506183026 | 61 | 56 | 7.8 | 17.4 | 0.00 | 0.00 | 0.00 | 54 | 1016.5 |
| 20260506182506 | 60 | 53 | 7.8 | 17.4 | 0.00 | 0.00 | 0.00 | 53 | 1016.5 |
| 20260506182012 | 60 | 49 | 4.3 | 13.0 | 0.00 | 0.00 | 0.00 | 53 | 1016.6 |
| 20260506181519 | 60 | 30 | 7.8 | 14.8 | 0.00 | 0.00 | 0.00 | 52 | 1016.6 |
| 20260506181008 | 61 | 99 | 5.2 | 14.8 | 0.00 | 0.00 | 0.00 | 55 | 1016.7 |
| 20260506180506 | 60 | 65 | 7.8 | 15.6 | 0.00 | 0.00 | 0.00 | 55 | 1016.7 |
| 20260506180016 | 60 | 360 | 6.1 | 15.6 | 0.00 | 0.00 | 0.00 | 55 | 1016.8 |
| 20260506175509 | 60 | 83 | 7.8 | 14.8 | 0.00 | 0.00 | 0.00 | 54 | 1016.8 |
| 20260506175003 | 59 | 60 | 3.5 | 13.9 | 0.00 | 0.00 | 0.00 | 56 | 1016.9 |
| 20260506174503 | 59 | 360 | 6.1 | 14.8 | 0.00 | 0.00 | 0.00 | 56 | 1017.0 |
| 20260506174003 | 59 | 360 | 9.6 | 14.8 | 0.00 | 0.00 | 0.00 | 55 | 1017.1 |
| 20260506173504 | 58 | 360 | 9.6 | 14.8 | 0.00 | 0.00 | 0.00 | 56 | 1017.1 |
| 20260506173007 | 58 | 360 | 8.7 | 13.9 | 0.00 | 0.00 | 0.00 | 57 | 1017.1 |
| 20260506172503 | 58 | 360 | 7.8 | 14.8 | 0.00 | 0.00 | 0.00 | 57 | 1017.1 |
| 20260506172006 | 58 | 360 | 9.6 | 15.6 | 0.00 | 0.00 | 0.00 | 58 | 1017.1 |
| 20260506171508 | 57 | 360 | 8.7 | 15.6 | 0.00 | 0.00 | 0.00 | 59 | 1017.0 |
| 20260506171008 | 57 | 25 | 9.6 | 15.6 | 0.00 | 0.00 | 0.00 | 60 | 1017.1 |
| 20260506170505 | 57 | 360 | 9.6 | 14.8 | 0.00 | 0.00 | 0.00 | 59 | 1017.0 |
| 20260506170022 | 57 | 360 | 9.6 | 14.8 | 0.00 | 0.00 | 0.00 | 60 | 1017.0 |
| 20260506165506 | 56 | 360 | 9.6 | 15.6 | 0.00 | 0.00 | 0.00 | 60 | 1017.0 |
| 20260506165007 | 56 | 360 | 8.7 | 16.5 | 0.00 | 0.00 | 0.00 | 61 | 1017.0 |
| 20260506164538 | 56 | 360 | 8.7 | 16.5 | 0.00 | 0.00 | 0.00 | 62 | 1017.1 |
| 20260506164011 | 55 | 360 | 10.4 | 15.6 | 0.00 | 0.00 | 0.00 | 63 | 1017.2 |
| 20260506163508 | 55 | 360 | 10.4 | 16.5 | 0.00 | 0.00 | 0.00 | 64 | 1017.4 |
| 20260506163009 | 54 | 360 | 10.4 | 16.5 | 0.00 | 0.00 | 0.00 | 63 | 1017.3 |
| 20260506162510 | 54 | 360 | 8.7 | 15.6 | 0.00 | 0.00 | 0.00 | 64 | 1017.4 |
| 20260506162004 | 54 | 360 | 8.7 | 16.5 | 0.00 | 0.00 | 0.00 | 63 | 1017.4 |
| 20260506161508 | 54 | 360 | 10.4 | 16.5 | 0.00 | 0.00 | 0.00 | 65 | 1017.3 |
| 20260506161004 | 54 | 360 | 10.4 | 16.5 | 0.00 | 0.00 | 0.00 | 64 | 1017.3 |
| 20260506160506 | 54 | 360 | 9.6 | 15.6 | 0.00 | 0.00 | 0.00 | 66 | 1017.3 |
| 20260506160012 | 54 | 360 | 9.6 | 16.5 | 0.00 | 0.00 | 0.00 | 67 | 1017.2 |
| 20260506155508 | 53 | 360 | 9.6 | 16.5 | 0.00 | 0.00 | 0.00 | 67 | 1017.3 |
| 20260506155007 | 53 | 360 | 10.4 | 15.6 | 0.00 | 0.00 | 0.00 | 69 | 1017.3 |
| 20260506154516 | 52 | 38 | 9.6 | 14.8 | 0.00 | 0.00 | 0.00 | 70 | 1017.1 |
| 20260506154006 | 52 | 29 | 8.7 | 13.9 | 0.00 | 0.00 | 0.00 | 72 | 1017.2 |
| 20260506153507 | 52 | 34 | 7.8 | 13.9 | 0.00 | 0.00 | 0.00 | 72 | 1017.3 |
| 20260506153021 | 52 | 53 | 8.7 | 16.5 | 0.00 | 0.00 | 0.00 | 72 | 1017.0 |
| 20260506152508 | 51 | 360 | 10.4 | 16.5 | 0.00 | 0.00 | 0.00 | 71 | 1017.0 |
| 20260506152010 | 51 | 56 | 9.6 | 18.2 | 0.00 | 0.00 | 0.00 | 71 | 1017.0 |
| 20260506151504 | 52 | 63 | 9.6 | 18.2 | 0.00 | 0.00 | 0.00 | 72 | 1016.9 |
| 20260506151003 | 51 | 38 | 9.6 | 16.5 | 0.00 | 0.00 | 0.00 | 72 | 1016.8 |
| 20260506150504 | 51 | 38 | 9.6 | 16.5 | 0.00 | 0.00 | 0.00 | 73 | 1016.8 |
| 20260506150007 | 51 | 51 | 11.3 | 16.5 | 0.00 | 0.00 | 0.00 | 72 | 1016.7 |
| 20260506145505 | 51 | 38 | 9.6 | 15.6 | 0.00 | 0.00 | 0.00 | 73 | 1016.7 |
| 20260506145012 | 51 | 28 | 11.3 | 16.5 | 0.00 | 0.00 | 0.00 | 74 | 1016.5 |
| 20260506144521 | 51 | 360 | 11.3 | 16.5 | 0.00 | 0.00 | 0.00 | 73 | 1016.5 |
| 20260506144013 | 50 | 360 | 9.6 | 17.4 | 0.00 | 0.00 | 0.00 | 75 | 1016.4 |
| 20260506143508 | 50 | 19 | 10.4 | 20.0 | 0.00 | 0.00 | 0.00 | 76 | 1016.4 |
| 20260506143019 | 50 | 52 | 13.0 | 20.0 | 0.00 | 0.00 | 0.00 | 75 | 1016.3 |
| 20260506142513 | 50 | 38 | 11.3 | 17.4 | 0.00 | 0.00 | 0.00 | 75 | 1016.2 |
| 20260506142009 | 50 | 52 | 7.8 | 14.8 | 0.00 | 0.00 | 0.00 | 77 | 1016.0 |
| 20260506141529 | 50 | 360 | 8.7 | 17.4 | 0.00 | 0.00 | 0.00 | 77 | 1016.1 |
| 20260506141007 | 50 | 360 | 8.7 | 17.4 | 0.00 | 0.00 | 0.00 | 78 | 1016.2 |
| 20260506140512 | 49 | 360 | 10.4 | 17.4 | 0.00 | 0.00 | 0.00 | 78 | 1016.2 |
| 20260506140007 | 49 | 360 | 7.8 | 16.5 | 0.00 | 0.00 | 0.00 | 79 | 1016.2 |
| 20260506135503 | 49 | 360 | 10.4 | 16.5 | 0.00 | 0.00 | 0.00 | 79 | 1016.4 |
| 20260506135003 | 49 | 360 | 10.4 | 15.6 | 0.00 | 0.00 | 0.00 | 79 | 1016.3 |
| 20260506134510 | 49 | 360 | 11.3 | 15.6 | 0.00 | 0.00 | 0.00 | 79 | 1016.3 |
| 20260506134008 | 49 | 360 | 9.6 | 15.6 | 0.00 | 0.00 | 0.00 | 79 | 1016.4 |
| 20260506133508 | 49 | 360 | 8.7 | 15.6 | 0.00 | 0.00 | 0.00 | 79 | 1016.3 |
| 20260506133014 | 49 | 360 | 9.6 | 14.8 | 0.00 | 0.00 | 0.00 | 79 | 1016.5 |
| 20260506132508 | 49 | 360 | 8.7 | 16.5 | 0.00 | 0.00 | 0.00 | 80 | 1016.5 |
| 20260506132007 | 49 | 360 | 10.4 | 16.5 | 0.00 | 0.00 | 0.00 | 79 | 1016.4 |
| 20260506131519 | 49 | 360 | 8.7 | 16.5 | 0.00 | 0.00 | 0.00 | 80 | 1016.4 |
| 20260506131010 | 49 | 360 | 7.0 | 17.4 | 0.00 | 0.00 | 0.00 | 81 | 1016.5 |
| 20260506130509 | 48 | 360 | 8.7 | 17.4 | 0.00 | 0.00 | 0.00 | 80 | 1016.5 |
| 20260506130026 | 48 | 360 | 8.7 | 14.8 | 0.00 | 0.00 | 0.00 | 81 | 1016.4 |
| 20260506125514 | 48 | 360 | 10.4 | 14.8 | 0.00 | 0.00 | 0.00 | 82 | 1016.4 |
| 20260506125007 | 48 | 360 | 9.6 | 14.8 | 0.00 | 0.00 | 0.00 | 82 | 1016.2 |
| 20260506124526 | 48 | 360 | 8.7 | 14.8 | 0.00 | 0.00 | 0.00 | 82 | 1016.0 |
| 20260506124006 | 48 | 360 | 9.6 | 14.8 | 0.00 | 0.00 | 0.00 | 82 | 1016.1 |
| 20260506123506 | 48 | 360 | 9.6 | 14.8 | 0.00 | 0.00 | 0.00 | 82 | 1016.0 |
| 20260506123014 | 48 | 360 | 9.6 | 14.8 | 0.00 | 0.00 | 0.00 | 83 | 1016.0 |
| 20260506122508 | 48 | 360 | 8.7 | 13.0 | 0.00 | 0.00 | 0.00 | 83 | 1015.9 |
| 20260506122010 | 48 | 360 | 7.0 | 13.0 | 0.00 | 0.00 | 0.00 | 83 | 1015.5 |
| 20260506121516 | 48 | 360 | 8.7 | 13.0 | 0.00 | 0.00 | 0.00 | 83 | 1015.4 |
| 20260506121008 | 48 | 360 | 7.8 | 13.0 | 0.00 | 0.00 | 0.00 | 83 | 1015.2 |
| 20260506120511 | 48 | 360 | 8.7 | 13.0 | 0.00 | 0.00 | 0.00 | 83 | 1015.2 |
| 20260506120041 | 47 | 360 | 7.8 | 13.0 | 0.00 | 0.00 | 0.00 | 82 | 1015.1 |
| 20260506115506 | 48 | 360 | 7.8 | 13.0 | 0.00 | 0.00 | 0.00 | 82 | 1015.1 |
| 20260506115009 | 48 | 360 | 8.7 | 13.0 | 0.00 | 0.00 | 0.00 | 82 | 1015.1 |
| 20260506114526 | 48 | 360 | 5.2 | 12.2 | 0.00 | 0.00 | 0.00 | 82 | 1015.1 |
| 20260506114012 | 48 | 360 | 6.1 | 13.0 | 0.00 | 0.00 | 0.00 | 82 | 1015.0 |
| 20260506113511 | 48 | 360 | 7.8 | 13.0 | 0.00 | 0.00 | 0.00 | 82 | 1015.1 |
| 20260506113026 | 48 | 360 | 7.8 | 13.9 | 0.00 | 0.00 | 0.00 | 82 | 1015.1 |
| 20260506112512 | 47 | 360 | 8.7 | 13.9 | 0.00 | 0.00 | 0.00 | 81 | 1014.7 |
| 20260506112006 | 47 | 360 | 7.0 | 13.0 | 0.00 | 0.00 | 0.00 | 81 | 1014.6 |
| 20260506111519 | 47 | 360 | 6.1 | 13.0 | 0.00 | 0.00 | 0.00 | 81 | 1014.7 |
| 20260506111007 | 47 | 360 | 7.8 | 13.0 | 0.00 | 0.00 | 0.00 | 81 | 1014.7 |
| 20260506110508 | 47 | 360 | 8.7 | 13.0 | 0.00 | 0.00 | 0.00 | 81 | 1014.6 |
| 20260506110018 | 47 | 360 | 6.1 | 13.9 | 0.00 | 0.00 | 0.00 | 81 | 1014.6 |
| 20260506105508 | 47 | 360 | 6.1 | 13.9 | 0.00 | 0.00 | 0.00 | 81 | 1014.6 |
| 20260506105011 | 48 | 360 | 7.8 | 13.0 | 0.00 | 0.00 | 0.00 | 81 | 1014.9 |
| 20260506104537 | 48 | 360 | 6.1 | 13.9 | 0.00 | 0.00 | 0.00 | 80 | 1015.1 |
| 20260506104011 | 48 | 360 | 8.7 | 13.9 | 0.00 | 0.00 | 0.00 | 80 | 1015.3 |
| 20260506103511 | 48 | 360 | 7.0 | 13.0 | 0.00 | 0.00 | 0.00 | 80 | 1015.1 |
| 20260506103037 | 48 | 341 | 7.0 | 11.3 | 0.00 | 0.00 | 0.00 | 80 | 1015.4 |
| 20260506102515 | 48 | 360 | 4.3 | 13.0 | 0.00 | 0.00 | 0.00 | 80 | 1015.3 |
| 20260506102003 | 48 | 360 | 7.8 | 13.0 | 0.00 | 0.00 | 0.00 | 79 | 1015.0 |
| 20260506101506 | 48 | 360 | 7.0 | 12.2 | 0.00 | 0.00 | 0.00 | 79 | 1014.9 |
| 20260506101003 | 48 | 360 | 5.2 | 10.4 | 0.00 | 0.00 | 0.00 | 79 | 1015.2 |
| 20260506100502 | 48 | 15 | 6.1 | 10.4 | 0.00 | 0.00 | 0.00 | 79 | 1015.2 |
| 20260506100005 | 48 | 360 | 4.3 | 10.4 | 0.00 | 0.00 | 0.00 | 79 | 1015.1 |
| 20260506095505 | 48 | 360 | 4.3 | 10.4 | 0.00 | 0.00 | 0.00 | 78 | 1015.2 |
| 20260506095004 | 48 | 360 | 3.5 | 8.7 | 0.00 | 0.00 | 0.00 | 78 | 1015.1 |
| 20260506094504 | 48 | 360 | 5.2 | 8.7 | 0.00 | 0.00 | 0.00 | 78 | 1015.0 |
| 20260506094002 | 48 | 360 | 4.3 | 7.8 | 0.00 | 0.00 | 0.00 | 77 | 1014.9 |
| 20260506093504 | 48 | 360 | 3.5 | 8.7 | 0.00 | 0.00 | 0.00 | 77 | 1014.7 |
| 20260506093016 | 48 | 360 | 4.3 | 10.4 | 0.00 | 0.00 | 0.00 | 76 | 1014.5 |
| 20260506092504 | 48 | 360 | 5.2 | 12.2 | 0.00 | 0.00 | 0.00 | 76 | 1014.4 |
| 20260506092007 | 48 | 360 | 7.0 | 12.2 | 0.00 | 0.00 | 0.00 | 76 | 1014.2 |
| 20260506091506 | 48 | 360 | 7.0 | 13.0 | 0.00 | 0.00 | 0.00 | 75 | 1014.2 |
| 20260506091004 | 48 | 46 | 7.0 | 13.0 | 0.00 | 0.00 | 0.00 | 75 | 1014.0 |
| 20260506090504 | 48 | 360 | 7.0 | 10.4 | 0.00 | 0.00 | 0.00 | 75 | 1014.1 |
| 20260506090005 | 48 | 360 | 5.2 | 10.4 | 0.00 | 0.00 | 0.00 | 75 | 1014.2 |
| 20260506085503 | 48 | 360 | 5.2 | 11.3 | 0.00 | 0.00 | 0.00 | 75 | 1014.2 |
| 20260506085002 | 48 | 360 | 6.1 | 11.3 | 0.00 | 0.00 | 0.00 | 75 | 1013.9 |
| 20260506084511 | 48 | 28 | 7.0 | 11.3 | 0.00 | 0.00 | 0.00 | 75 | 1013.9 |
| 20260506084006 | 48 | 360 | 6.1 | 12.2 | 0.00 | 0.00 | 0.00 | 74 | 1013.9 |
| 20260506083502 | 48 | 360 | 6.1 | 14.8 | 0.00 | 0.00 | 0.00 | 74 | 1013.6 |
| 20260506083010 | 48 | 360 | 7.0 | 14.8 | 0.00 | 0.00 | 0.00 | 74 | 1013.7 |
| 20260506082504 | 48 | 27 | 7.8 | 14.8 | 0.00 | 0.00 | 0.00 | 73 | 1013.4 |
| 20260506082004 | 48 | 360 | 7.8 | 13.0 | 0.00 | 0.00 | 0.00 | 73 | 1013.2 |
| 20260506081506 | 48 | 360 | 7.0 | 13.0 | 0.00 | 0.00 | 0.00 | 73 | 1013.2 |
| 20260506081010 | 48 | 360 | 5.2 | 11.3 | 0.00 | 0.00 | 0.00 | 74 | 1013.2 |
| 20260506080506 | 48 | 360 | 7.0 | 12.2 | 0.00 | 0.00 | 0.00 | 74 | 1013.0 |
| 20260506073507 | 49 | 360 | 9.6 | 16.5 | 0.00 | 0.00 | 0.00 | 71 | 1012.2 |
| 20260506073010 | 49 | 360 | 8.7 | 16.5 | 0.00 | 0.00 | 0.00 | 71 | 1012.1 |
| 20260506072507 | 49 | 360 | 7.0 | 16.5 | 0.00 | 0.00 | 0.00 | 71 | 1012.2 |
| 20260506072010 | 49 | 360 | 8.7 | 16.5 | 0.00 | 0.00 | 0.00 | 71 | 1012.5 |
| 20260506071516 | 49 | 34 | 6.1 | 13.0 | 0.00 | 0.00 | 0.00 | 71 | 1012.4 |
| 20260506071005 | 49 | 42 | 7.8 | 13.0 | 0.00 | 0.00 | 0.00 | 71 | 1012.2 |
| 20260506070502 | 49 | 360 | 7.8 | 13.9 | 0.00 | 0.00 | 0.00 | 71 | 1012.4 |
| 20260506062506 | 49 | 360 | 7.8 | 16.5 | 0.00 | 0.00 | 0.00 | 70 | 1012.4 |
| 20260506062007 | 49 | 360 | 6.1 | 13.9 | 0.00 | 0.00 | 0.00 | 69 | 1012.4 |
| 20260506061510 | 49 | 360 | 7.8 | 15.6 | 0.00 | 0.00 | 0.00 | 69 | 1012.5 |
| 20260506061006 | 49 | 360 | 10.4 | 15.6 | 0.00 | 0.00 | 0.00 | 68 | 1012.5 |
| 20260506060505 | 49 | 360 | 9.6 | 15.6 | 0.00 | 0.00 | 0.00 | 68 | 1012.6 |
| 20260506051010 | 49 | 360 | 9.6 | 16.5 | 0.00 | 0.00 | 0.00 | 73 | 1012.4 |
| 20260506050507 | 49 | 360 | 10.4 | 16.5 | 0.00 | 0.00 | 0.00 | 73 | 1012.3 |
| 20260506045010 | 49 | 360 | 8.7 | 15.6 | 0.00 | 0.00 | 0.00 | 76 | 1012.2 |
| 20260506044519 | 49 | 360 | 7.8 | 19.1 | 0.00 | 0.00 | 0.00 | 76 | 1012.1 |
| 20260506044007 | 49 | 360 | 10.4 | 19.1 | 0.00 | 0.00 | 0.00 | 76 | 1012.3 |
| 20260506043505 | 49 | 360 | 10.4 | 19.1 | 0.00 | 0.00 | 0.00 | 77 | 1012.4 |
| 20260506043010 | 49 | 360 | 7.8 | 14.8 | 0.00 | 0.00 | 0.00 | 78 | 1012.5 |
| 20260506042506 | 49 | 360 | 8.7 | 15.6 | 0.00 | 0.00 | 0.00 | 78 | 1012.5 |
| 20260506042009 | 49 | 360 | 9.6 | 15.6 | 0.00 | 0.00 | 0.00 | 78 | 1012.7 |
| 20260506041502 | 49 | 360 | 9.6 | 14.8 | 0.00 | 0.00 | 0.00 | 79 | 1012.4 |
| 20260506041003 | 49 | 360 | 7.8 | 13.9 | 0.00 | 0.00 | 0.00 | 80 | 1012.6 |
| 20260506040502 | 49 | 360 | 10.4 | 15.6 | 0.00 | 0.00 | 0.00 | 80 | 1012.7 |
| 20260506040002 | 49 | 360 | 10.4 | 15.6 | 0.00 | 0.00 | 0.00 | 80 | 1012.4 |
| 20260506035503 | 49 | 360 | 6.1 | 16.5 | 0.00 | 0.00 | 0.00 | 80 | 1012.5 |
| 20260506035003 | 49 | 360 | 10.4 | 18.2 | 0.00 | 0.00 | 0.00 | 80 | 1012.3 |
| 20260506034504 | 49 | 360 | 11.3 | 17.4 | 0.00 | 0.00 | 0.00 | 80 | 1012.2 |
| 20260506034004 | 49 | 360 | 11.3 | 17.4 | 0.00 | 0.00 | 0.00 | 81 | 1012.4 |
| 20260506033504 | 49 | 360 | 10.4 | 17.4 | 0.00 | 0.00 | 0.00 | 81 | 1012.2 |
| 20260506033019 | 49 | 360 | 10.4 | 17.4 | 0.00 | 0.00 | 0.00 | 82 | 1012.2 |